When you browse on this site, cookies collect data to enhance your experience and personalize the content and advertising you see.
Visit our Privacy Policy to learn more. By continuing to use the site, you agree to this use of cookies and data.
  • In Österreich
  • Länderverzeichnis
  • Für 7 Tage
  • Wassertemperatur
  • Satellitenkarten
  • Wetterkarte
  • News
  • Widgets
  • user-avatar
    Anmelden

    Stündliche Wetter Jalalabad

    Heute, 22 April, Montag

    Zeit Temperatur Niederschläge Wind Luftdruck Luftfeuchtigkeit
    00:00 +26°C° 0.1 mm 1 m/S 708 mmHg 37%
    01:00 +26°C° 0.1 mm 1 m/S 708 mmHg 38%
    02:00 +25°C° 0.1 mm 1 m/S 708 mmHg 39%
    03:00 +25°C° 0 mm 1 m/S 708 mmHg 39%
    04:00 +24°C° 0 mm 1 m/S 708 mmHg 39%
    05:00 +24°C° 0 mm 1 m/S 707 mmHg 39%
    06:00 +25°C° 0 mm 1 m/S 708 mmHg 35%
    07:00 +26°C° 0 mm 1 m/S 708 mmHg 31%
    08:00 +28°C° 0 mm 1 m/S 709 mmHg 27%
    09:00 +29°C° 0 mm 1 m/S 709 mmHg 25%
    10:00 +30°C° 0 mm 1 m/S 709 mmHg 24%
    11:00 +31°C° 0 mm 2 m/S 709 mmHg 22%
    12:00 +32°C° 0 mm 2 m/S 709 mmHg 21%
    13:00 +34°C° 0 mm 2 m/S 708 mmHg 20%
    14:00 +35°C° 0 mm 2 m/S 708 mmHg 18%
    15:00 +35°C° 0 mm 2 m/S 708 mmHg 18%
    16:00 +35°C° 0 mm 2 m/S 708 mmHg 19%
    17:00 +35°C° 0 mm 3 m/S 707 mmHg 19%
    18:00 +32°C° 0 mm 2 m/S 708 mmHg 23%
    19:00 +31°C° 0 mm 1 m/S 708 mmHg 27%
    20:00 +29°C° 0 mm 1 m/S 708 mmHg 32%
    21:00 +29°C° 0 mm 1 m/S 709 mmHg 32%
    22:00 +29°C° 0 mm 1 m/S 709 mmHg 32%
    23:00 +28°C° 0 mm 1 m/S 709 mmHg 32%

    Morgen, 23 April, Dienstag

    Zeit Temperatur Niederschläge Wind Luftdruck Luftfeuchtigkeit
    00:00 +28°C° 0 mm 1 m/S 709 mmHg 32%
    01:00 +27°C° 0 mm 1 m/S 709 mmHg 33%
    02:00 +26°C° 0 mm 1 m/S 709 mmHg 34%
    03:00 +26°C° 0 mm 1 m/S 709 mmHg 34%
    04:00 +25°C° 0 mm 1 m/S 709 mmHg 35%
    05:00 +25°C° 0 mm 1 m/S 708 mmHg 36%
    06:00 +26°C° 0 mm 1 m/S 709 mmHg 32%
    07:00 +28°C° 0 mm 1 m/S 709 mmHg 28%
    08:00 +29°C° 0 mm 2 m/S 710 mmHg 25%
    09:00 +30°C° 0 mm 2 m/S 710 mmHg 24%
    10:00 +31°C° 0 mm 2 m/S 710 mmHg 23%
    11:00 +32°C° 0 mm 2 m/S 710 mmHg 22%
    12:00 +32°C° 0 mm 2 m/S 710 mmHg 22%
    13:00 +32°C° 0 mm 2 m/S 710 mmHg 21%
    14:00 +34°C° 0 mm 2 m/S 709 mmHg 20%
    15:00 +34°C° 0 mm 2 m/S 709 mmHg 21%
    16:00 +32°C° 0 mm 1 m/S 709 mmHg 22%
    17:00 +32°C° 0 mm 1 m/S 708 mmHg 23%
    18:00 +31°C° 0.1 mm 1 m/S 709 mmHg 27%
    19:00 +30°C° 0.1 mm 1 m/S 709 mmHg 30%
    20:00 +29°C° 0.1 mm 1 m/S 710 mmHg 34%
    21:00 +29°C° 0 mm 1 m/S 710 mmHg 34%
    22:00 +28°C° 0 mm 1 m/S 710 mmHg 35%
    23:00 +28°C° 0 mm 1 m/S 710 mmHg 36%

    übermorgen, 24 April, Mittwoch

    Zeit Temperatur Niederschläge Wind Luftdruck Luftfeuchtigkeit
    00:00 +27°C° 0 mm 2 m/S 710 mmHg 37%
    01:00 +27°C° 0 mm 2 m/S 710 mmHg 38%
    02:00 +26°C° 0 mm 2 m/S 709 mmHg 39%
    03:00 +26°C° 0.1 mm 2 m/S 709 mmHg 41%
    04:00 +26°C° 0.1 mm 2 m/S 709 mmHg 43%
    05:00 +26°C° 0.1 mm 1 m/S 709 mmHg 44%
    06:00 +26°C° 0.1 mm 2 m/S 709 mmHg 42%
    07:00 +27°C° 0.1 mm 2 m/S 710 mmHg 39%
    08:00 +28°C° 0.1 mm 2 m/S 710 mmHg 37%
    09:00 +27°C° 0.4 mm 3 m/S 710 mmHg 40%
    10:00 +27°C° 0.4 mm 3 m/S 710 mmHg 42%
    11:00 +27°C° 0.4 mm 3 m/S 710 mmHg 45%
    12:00 +27°C° 0.2 mm 3 m/S 710 mmHg 44%
    13:00 +27°C° 0.2 mm 4 m/S 710 mmHg 43%
    14:00 +28°C° 0.2 mm 4 m/S 709 mmHg 42%
    15:00 +27°C° 0.8 mm 3 m/S 709 mmHg 44%
    16:00 +27°C° 0.8 mm 3 m/S 708 mmHg 46%
    17:00 +27°C° 0.8 mm 3 m/S 708 mmHg 48%
    18:00 +26°C° 0.1 mm 3 m/S 708 mmHg 51%
    19:00 +25°C° 0.1 mm 3 m/S 709 mmHg 54%
    20:00 +25°C° 0.1 mm 3 m/S 709 mmHg 57%
    21:00 +24°C° 0.2 mm 2 m/S 709 mmHg 58%
    22:00 +24°C° 0.2 mm 2 m/S 710 mmHg 60%
    23:00 +24°C° 0.2 mm 2 m/S 710 mmHg 61%

    25 April, Donnerstag

    Zeit Temperatur Niederschläge Wind Luftdruck Luftfeuchtigkeit
    00:00 +23°C° 0.1 mm 2 m/S 709 mmHg 62%
    01:00 +23°C° 0.1 mm 2 m/S 709 mmHg 64%
    02:00 +21°C° 0.1 mm 2 m/S 709 mmHg 66%
    03:00 +21°C° 0.1 mm 2 m/S 709 mmHg 65%
    04:00 +21°C° 0.1 mm 2 m/S 709 mmHg 65%
    05:00 +20°C° 0.1 mm 2 m/S 709 mmHg 65%
    06:00 +23°C° 0 mm 2 m/S 709 mmHg 60%
    07:00 +24°C° 0 mm 2 m/S 709 mmHg 55%
    08:00 +25°C° 0 mm 3 m/S 710 mmHg 51%
    09:00 +26°C° 0 mm 3 m/S 710 mmHg 46%
    10:00 +28°C° 0 mm 3 m/S 710 mmHg 42%
    11:00 +29°C° 0 mm 3 m/S 710 mmHg 38%
    12:00 +30°C° 0 mm 3 m/S 710 mmHg 33%
    13:00 +31°C° 0 mm 3 m/S 710 mmHg 29%
    14:00 +33°C° 0 mm 4 m/S 709 mmHg 24%
    15:00 +33°C° 0 mm 3 m/S 709 mmHg 24%
    16:00 +33°C° 0 mm 3 m/S 709 mmHg 25%
    17:00 +33°C° 0 mm 3 m/S 708 mmHg 25%
    18:00 +30°C° 0 mm 3 m/S 709 mmHg 27%
    19:00 +29°C° 0 mm 3 m/S 709 mmHg 29%
    20:00 +28°C° 0 mm 3 m/S 709 mmHg 32%
    21:00 +27°C° 0 mm 3 m/S 709 mmHg 33%
    22:00 +27°C° 0 mm 3 m/S 709 mmHg 33%
    23:00 +26°C° 0 mm 2 m/S 710 mmHg 34%

    26 April, Freitag

    Zeit Temperatur Niederschläge Wind Luftdruck Luftfeuchtigkeit
    00:00 +25°C° 0 mm 2 m/S 709 mmHg 35%
    01:00 +25°C° 0 mm 2 m/S 709 mmHg 37%
    02:00 +24°C° 0 mm 2 m/S 709 mmHg 38%
    03:00 +24°C° 0 mm 2 m/S 709 mmHg 38%
    04:00 +23°C° 0 mm 2 m/S 709 mmHg 39%
    05:00 +23°C° 0 mm 2 m/S 708 mmHg 39%
    06:00 +24°C° 0 mm 2 m/S 709 mmHg 36%
    07:00 +25°C° 0 mm 2 m/S 710 mmHg 33%
    08:00 +26°C° 0 mm 2 m/S 710 mmHg 31%
    09:00 +27°C° 0 mm 2 m/S 710 mmHg 31%
    10:00 +28°C° 0 mm 3 m/S 710 mmHg 32%
    11:00 +29°C° 0 mm 3 m/S 711 mmHg 33%
    12:00 +30°C° 0 mm 3 m/S 710 mmHg 30%
    13:00 +32°C° 0 mm 4 m/S 710 mmHg 27%
    14:00 +33°C° 0 mm 4 m/S 710 mmHg 24%
    15:00 +33°C° 0 mm 4 m/S 709 mmHg 25%
    16:00 +33°C° 0 mm 3 m/S 709 mmHg 25%
    17:00 +33°C° 0 mm 3 m/S 709 mmHg 25%
    18:00 +31°C° 0.1 mm 3 m/S 709 mmHg 28%
    19:00 +30°C° 0.1 mm 3 m/S 709 mmHg 31%
    20:00 +29°C° 0.1 mm 3 m/S 710 mmHg 34%
    21:00 +28°C° 0.1 mm 3 m/S 710 mmHg 35%
    22:00 +27°C° 0.1 mm 3 m/S 710 mmHg 37%
    23:00 +26°C° 0.1 mm 3 m/S 710 mmHg 38%

    27 April, Samstag

    Zeit Temperatur Niederschläge Wind Luftdruck Luftfeuchtigkeit
    00:00 +26°C° 0 mm 3 m/S 710 mmHg 38%
    01:00 +25°C° 0 mm 2 m/S 710 mmHg 39%
    02:00 +24°C° 0 mm 2 m/S 709 mmHg 40%
    03:00 +24°C° 0 mm 2 m/S 709 mmHg 40%
    04:00 +23°C° 0 mm 2 m/S 709 mmHg 40%
    05:00 +23°C° 0 mm 2 m/S 709 mmHg 40%
    06:00 +24°C° 0 mm 2 m/S 710 mmHg 37%
    07:00 +25°C° 0 mm 2 m/S 710 mmHg 33%
    08:00 +26°C° 0 mm 2 m/S 710 mmHg 30%
    09:00 +27°C° 0 mm 2 m/S 711 mmHg 30%
    10:00 +28°C° 0 mm 2 m/S 711 mmHg 31%
    11:00 +29°C° 0 mm 2 m/S 711 mmHg 31%
    12:00 +30°C° 0 mm 2 m/S 710 mmHg 29%
    13:00 +31°C° 0 mm 3 m/S 710 mmHg 26%
    14:00 +33°C° 0 mm 3 m/S 709 mmHg 23%
    15:00 +33°C° 0 mm 3 m/S 709 mmHg 23%
    16:00 +32°C° 0 mm 2 m/S 709 mmHg 23%
    17:00 +32°C° 0 mm 2 m/S 709 mmHg 23%
    18:00 +31°C° 0 mm 2 m/S 709 mmHg 26%
    19:00 +30°C° 0 mm 2 m/S 709 mmHg 28%
    20:00 +29°C° 0 mm 2 m/S 710 mmHg 31%
    21:00 +28°C° 0.1 mm 2 m/S 710 mmHg 31%
    22:00 +27°C° 0.1 mm 3 m/S 710 mmHg 31%
    23:00 +26°C° 0.1 mm 3 m/S 710 mmHg 32%
    Mehr zeigen